{"data":{"norad_id":68871,"epoch":"2026-09-20T01:08:30.799680Z","epoch_age_seconds":54468,"freshness":"FRESH","line1":"1 68871U 26095H   26263.04757870  .00001201  00000+0  20218-3 0  9998","line2":"2 68871  51.9041 183.6367 0003489  55.0253 305.1035 14.76334868 21763","mean_motion":14.76334868,"eccentricity":0.0003489,"inclination_deg":51.9041,"raan_deg":183.6367,"arg_perigee_deg":55.0253,"mean_anomaly_deg":305.1035,"bstar":0.00020218,"rev_number":2176,"period_min":97.538846450926,"perigee_km":638.46815504979,"apogee_km":643.36605100289,"semimajor_km":7019.0541030263,"source":"CELESTRAK","updated_at":"2026-09-20T09:00:24.533471Z"}}